User: anonymous   Login
Location: Unspecified
(0.0000°N, 0.0000°E)
Time: 15:13:58
(UTC+00:00)
Language:

Orbcomm F1 (FM01) - Orbit

View from above orbital plane
View from above orbital plane
View from above satellite
View from above satellite

Ground track
Ground track

The orbit data is extracted from the following two-line orbital elements,

1 23545U 95017A   18051.53570195 +.00000314 +00000-0 +63060-4 0  9998
2 23545 069.9693 099.6244 0008525 299.8378 060.1919 14.70986686218690
Epoch (UTC): 20 February 2018 12:51:24
Eccentricity: 0.0008525
inclination: 69.9693°
perigee height: 652 km
apogee height: 664 km
right ascension of ascending node: 99.6244°
argument of perigee: 299.8378°
revolutions per day: 14.70986686
mean anomaly at epoch: 60.1919°
orbit number at epoch: 21869

The dashed part of the orbit path shows where the satellite is in the earth's shadow,  

DLR